This is the latest recevied weather packets stored in our database for station/object EA1FWM-12. If no packets are shown the sender has not sent any weather packets the latest 10 day(s).
| Time | Temp. | Humidity | Pressure | Rain* | Wind** | Luminosity | Snow |
|---|---|---|---|---|---|---|---|
| 1777771422 | 8.89° C | 92% | 1017.6 hPa | - | - | - | - |
| 1777770522 | 8.33° C | 92% | 1017.7 hPa | - | - | - | - |
| 1777768722 | 8.33° C | 92% | 1018 hPa | - | - | - | - |
| 1777767823 | 8.33° C | 91% | 1018.2 hPa | - | - | - | - |
| 1777766923 | 8.89° C | 91% | 1018.3 hPa | - | - | - | - |
| 1777765131 | 8.89° C | 91% | 1018.5 hPa | - | - | - | - |
| 1777764224 | 9.44° C | 91% | 1018.6 hPa | - | - | - | - |
| 1777763325 | 9.44° C | 91% | 1018.5 hPa | - | - | - | - |
| 1777762433 | 9.44° C | 91% | 1018.6 hPa | - | - | - | - |
| 1777761524 | 9.44° C | 91% | 1018.6 hPa | - | - | - | - |
| 1777760624 | 9.44° C | 91% | 1018.6 hPa | - | - | - | - |
| 1777757924 | 9.44° C | 91% | 1018.8 hPa | - | - | - | - |
| 1777757032 | 9.44° C | 91% | 1018.9 hPa | - | - | - | - |
| 1777756124 | 9.44° C | 90% | 1018.8 hPa | - | - | - | - |
| 1777750724 | 10° C | 89% | 1018.2 hPa | - | - | - | - |
| 1777748025 | 10° C | 88% | 1018 hPa | - | - | - | - |
| 1777747124 | 10.56° C | 88% | 1018 hPa | - | - | - | - |
| 1777746333 | 10.56° C | 87% | 1018.1 hPa | - | - | - | - |
| 1777746225 | 10.56° C | 87% | 1018.1 hPa | - | - | - | - |
| 1777745324 | 10.56° C | 87% | 1018.2 hPa | - | - | - | - |
| 1777744426 | 10.56° C | 86% | 1018.2 hPa | - | - | - | - |
| 1777743525 | 11.67° C | 85% | 1018.1 hPa | - | - | - | - |
| 1777742624 | 12.22° C | 84% | 1018 hPa | - | - | - | - |
| 1777739924 | 13.89° C | 81% | 1018.1 hPa | - | - | - | - |
| 1777739025 | 14.44° C | 80% | 1018 hPa | - | - | - | - |
* Rain since midnight (hover to see other rain measurements)
** Current wind speed in m/s (hover to see current wind gust speed)